Location: �clusier
(49.9361°N, 2.7869°E)
Time: 11:02:56
(UTC+00:00)

Cosmos 1452 Rocket - Pass Details

Date: 26 October 2021
Orbit: 767 x 775 km, 74.1° (Epoch: 26 November)

Event Time Altitude Azimuth Distance (km) Brightness Sun altitude
Rises 04:24:31 0° 341° (NNW) 3,267 6.6 -20.5°
Reaches altitude 10° 04:27:22 10° 356° (N) 2,335 6.0 -20.0°
Maximum altitude 04:31:38 24° 49° (NE) 1,569 5.7 -19.4°
Drops below altitude 10° 04:35:53 10° 103° (ESE) 2,324 7.1 -18.7°
Sets 04:38:42 0° 117° (ESE) 3,246 7.8 -18.2°
